Weather History for KSLC - October, 2010

Change the Weather History Date:

Thursday, October 28, 2010

  Actual Average Record
Temperature  
Mean Temperature 46 °F 48 °F  
Max Temperature 59 °F 59 °F 79 °F (1990)
Min Temperature 33 °F 37 °F 23 °F (1970)
Degree Days  
Heating Degree Days 19 17  
Month to date heating degree days 243 327  
Since 1 July heating degree days 277 416  
Cooling Degree Days 0 0  
Month to date cooling degree days 21 5  
Year to date cooling degree days 1142 1158  
Moisture  
Dew Point 25 °F    
Average Humidity 49    
Maximum Humidity 75    
Minimum Humidity 23    
Precipitation  
Precipitation 0.00 in 0.05 in 1.08 in (1946)
Month to date precipitation 1.80 1.36  
Year to date precipitation 12.75 13.08  
Snow  
Snow 0.00 in 0.10 in 6.30 in (1961)
Month to date snowfall 1.8 1.1  
Since 1 July snowfall 1.8 1.1  
Snow Depth 0.00 in    
Sea Level Pressure  
Sea Level Pressure 30.30 in    
Wind  
Wind Speed 9 mph (SSE)    
Max Wind Speed 28 mph    
Max Gust Speed 35 mph    
Visibility 10 miles    
Events      
T = Trace of Precipitation, MM = Missing Value Source: NWS Daily Summary

Daily Weather History Graph

Daily Weather History Graph

Search for Another Location

Airport or City:

Trip Planner

Search our weather history database for the weather conditions in past years. The results will help you decide how hot, cold, wet, or windy it might be!

Date:

Astronomy

Oct. 28, 2010 Rise Set
Actual Time 7:53 AM MDT 6:28 PM MDT
Civil Twilight 7:25 AM MDT 6:57 PM MDT
Nautical Twilight 6:53 AM MDT 7:29 PM MDT
Astronomical Twilight 6:21 AM MDT 8:01 PM MDT
Moon 11:03 PM MDT (10/28) 1:17 PM MDT (10/28)
Length of Visible Light 11h 31m
Length of Day
10h 35m
Waning Gibbous, 69% of the Moon is Illuminated
Oct 28
Waning Gibbous
Oct 30
Last Quarter
Nov 5
New
Nov 13
First Quarter
Nov 21
Full

Hourly Weather History & Observations

Time (MDT) Temp. Windchill Dew Point Humidity Pressure Visibility Wind Dir Wind Speed Gust Speed Precip Events Conditions
12:53 AM 34.0 °F 28.0 °F 27.0 °F 75% 30.42 in 10.0 mi South 6.9 mph - N/A   Partly Cloudy
1:53 AM 33.1 °F 28.7 °F 26.1 °F 75% 30.43 in 10.0 mi ESE 4.6 mph - N/A   Partly Cloudy
2:53 AM 34.0 °F - 27.0 °F 75% 30.43 in 10.0 mi Calm Calm - N/A   Partly Cloudy
3:53 AM 34.0 °F 31.0 °F 26.1 °F 73% 30.41 in 10.0 mi SSE 3.5 mph - N/A   Partly Cloudy
4:53 AM 37.0 °F 31.0 °F 25.0 °F 62% 30.38 in 10.0 mi SSE 8.1 mph - N/A   Scattered Clouds
5:53 AM 36.0 °F 31.1 °F 25.0 °F 64% 30.40 in 10.0 mi East 5.8 mph - N/A   Mostly Cloudy
6:53 AM 39.0 °F 34.8 °F 24.1 °F 55% 30.38 in 10.0 mi South 5.8 mph - N/A   Mostly Cloudy
7:53 AM 37.0 °F 32.4 °F 23.0 °F 57% 30.38 in 10.0 mi SE 5.8 mph - N/A   Scattered Clouds
8:53 AM 41.0 °F 33.9 °F 24.1 °F 51% 30.38 in 10.0 mi South 12.7 mph - N/A   Scattered Clouds
9:53 AM 44.1 °F 40.8 °F 23.0 °F 43% 30.40 in 10.0 mi ESE 5.8 mph - N/A   Mostly Cloudy
10:53 AM 48.0 °F - 19.9 °F 33% 30.38 in 10.0 mi South 11.5 mph - N/A   Mostly Cloudy
11:53 AM 50.0 °F - 19.9 °F 31% 30.37 in 10.0 mi SSE 8.1 mph - N/A   Mostly Cloudy
12:53 PM 53.1 °F - 19.9 °F 27% 30.32 in 10.0 mi SE 5.8 mph - N/A   Mostly Cloudy
1:53 PM 54.0 °F - 19.9 °F 26% 30.29 in 10.0 mi SSE 4.6 mph - N/A   Mostly Cloudy
2:53 PM 55.9 °F - 19.0 °F 24% 30.25 in 10.0 mi Variable 4.6 mph - N/A   Mostly Cloudy
3:53 PM 59.0 °F - 21.0 °F 23% 30.21 in 10.0 mi South 11.5 mph - N/A   Mostly Cloudy
4:53 PM 57.0 °F - 25.0 °F 29% 30.21 in 10.0 mi WNW 6.9 mph - N/A   Mostly Cloudy
5:53 PM 52.0 °F - 30.9 °F 45% 30.22 in 10.0 mi North 8.1 mph - N/A   Mostly Cloudy
6:53 PM 48.0 °F - 30.9 °F 52% 30.20 in 10.0 mi NNE 3.5 mph - N/A   Mostly Cloudy
7:53 PM 50.0 °F - 30.9 °F 48% 30.19 in 10.0 mi SSE 5.8 mph - N/A   Mostly Cloudy
8:53 PM 52.0 °F - 30.0 °F 43% 30.16 in 10.0 mi South 9.2 mph 21.9 mph N/A   Mostly Cloudy
9:53 PM 53.1 °F - 25.0 °F 34% 30.17 in 10.0 mi South 18.4 mph 24.2 mph N/A   Mostly Cloudy
10:53 PM 52.0 °F - 26.1 °F 37% 30.16 in 10.0 mi SSE 18.4 mph 24.2 mph N/A   Mostly Cloudy
11:53 PM 52.0 °F - 25.0 °F 35% 30.16 in 10.0 mi SSE 19.6 mph 29.9 mph N/A   Mostly Cloudy